Location: Bald Rock
(37.3738°N, 119.9354°W)
Time: 21:47:34
(UTC+00:00)

H-2A R/B - Pass Details

Date: 08 September 2024
Orbit: 731 x 831 km, 98.2° (Epoch: 12 October)

Event Time Altitude Azimuth Distance (km) Brightness Sun altitude
Rises 13:00:35 0° 0° (N) 3,331 5.5 -7.9°
Reaches altitude 10° 13:03:10 10° 350° (N) 2,410 4.6 -7.4°
Maximum altitude 13:07:43 29° 292° (WNW) 1,464 3.0 -6.5°
Drops below altitude 10° 13:12:18 10° 233° (SW) 2,429 4.0 -5.6°
Sets 13:14:55 0° 223° (SW) 3,362 4.8 -5.1°
